STARLINK-32180 (60374 NORAD) Tracking and Keplerian Element Data

This shows tracking and keplerian element data for the satellite.

Feedback or suggestion? Click here.




ElementValue
Catalog60374
NameSTARLINK-32180
Epoch Orbit1197
Epoch Day286.42786281
Epoch Year2024
RAAN178.7145
Inclination53.1595
Eccentricity9.56E-05
Argument of Perigee124.2254
Mean Anonmoly235.8841
Mean Motion15.39617835
Decay Rate3.909E-05
L11 60374U 24138V 24286.42786281 .00003909 00000+0 10766-3 0 9991
L22 60374 53.1595 178.7145 0000956 124.2254 235.8841 15.39617835 11970



Live tracking and technical data element details for STARLINK-32180 (NORAD 60374). STARLINK-32180 can be tracked NOW for your location showing map with azimuth and elevation plus other details from your city location.







IsCatalogInMostPopularTable: catalog: 60374, numindb: 8
Update: records affected: 1



GetName: 60374 STARLINK-32180

Hit Count: updated at: Wed, 04 Dec 2024 19:43:10 GMT